Weather History for KRAP - January, 2013

Change the Weather History Date:

Thursday, January 31, 2013

  Actual Average Record
Temperature  
Mean Temperature 7 °F 25 °F  
Max Temperature 15 °F 38 °F 68 °F (1992)
Min Temperature -1 °F 13 °F -21 °F (1996)
Degree Days  
Heating Degree Days 58 40  
Month to date heating degree days 1246 1242  
Since 1 July heating degree days 3993 4156  
Cooling Degree Days 0 0  
Month to date cooling degree days 0 0  
Year to date cooling degree days 0 0  
Moisture  
Dew Point 1 °F    
Average Humidity 75    
Maximum Humidity 87    
Minimum Humidity 63    
Precipitation  
Precipitation 0.01 in 0.01 in 0.23 in (1971)
Month to date precipitation 0.43 0.30  
Year to date precipitation 0.43 0.30  
Snow  
Snow 0.20 in 0.20 in 2.90 in (1971)
Month to date snowfall 7.0 4.4  
Since 1 July snowfall 16.6 17.6  
Snow Depth 2.00 in    
Sea Level Pressure  
Sea Level Pressure 30.17 in    
Wind  
Wind Speed 13 mph (North)    
Max Wind Speed 33 mph    
Max Gust Speed 43 mph    
Visibility 6 miles    
Events Snow    
T = Trace of Precipitation, MM = Missing Value Source: NWS Daily Summary

Daily Weather History Graph

Daily Weather History Graph

Search for Another Location

Airport or City:

Trip Planner

Search our weather history database for the weather conditions in past years. The results will help you decide how hot, cold, wet, or windy it might be!

Date:

Astronomy

Jan. 31, 2013 Rise Set
Actual Time 7:10 AM MST 5:01 PM MST
Civil Twilight 6:39 AM MST 5:32 PM MST
Nautical Twilight 6:05 AM MST 6:06 PM MST
Astronomical Twilight 5:31 AM MST 6:40 PM MST
Moon 10:19 PM MST (1/31) 8:59 AM MST (1/31)
Length of Visible Light 10h 52m
Length of Day
9h 51m
Waning Gibbous, 79% of the Moon is Illuminated
Jan 31
Waning Gibbous
Feb 3
Last Quarter
Feb 10
New
Feb 17
First Quarter
Feb 25
Full

Hourly Weather History & Observations

Time (MST) Temp. Windchill Dew Point Humidity Pressure Visibility Wind Dir Wind Speed Gust Speed Precip Events Conditions
12:05 AM 14.0 °F -6.5 °F 10.4 °F 86% 29.86 in 3.0 mi NNW 28.8 mph 39.1 mph 0.00 in Snow Light Snow
12:11 AM 14.0 °F -7.1 °F 10.4 °F 86% 29.86 in 2.0 mi NNW 31.1 mph 39.1 mph 0.00 in Snow Light Snow
12:25 AM 14.0 °F -5.8 °F 8.6 °F 79% 29.87 in 1.5 mi North 26.5 mph 39.1 mph 0.01 in Snow Light Snow
12:36 AM 12.2 °F -7.9 °F 8.6 °F 85% 29.88 in 2.5 mi NNW 25.3 mph 39.1 mph 0.01 in Snow Light Snow
12:52 AM 12.0 °F -9.8 °F 8.1 °F 84% 30.06 in 2.5 mi North 31.1 mph 42.6 mph 0.01 in Snow Light Snow
1:06 AM 12.2 °F -9.3 °F 6.8 °F 79% 29.88 in 3.0 mi North 29.9 mph 38.0 mph 0.00 in Snow Light Snow
1:16 AM 12.2 °F -8.6 °F 6.8 °F 79% 29.89 in 1.8 mi North 27.6 mph 38.0 mph 0.00 in Snow Light Snow
1:28 AM 10.4 °F -11.4 °F 6.8 °F 85% 29.91 in 2.5 mi NNW 28.8 mph 34.5 mph 0.00 in Snow Light Snow
1:52 AM 10.9 °F -9.6 °F 5.0 °F 77% 30.09 in 4.0 mi NNW 25.3 mph 39.1 mph 0.00 in Snow Light Snow
2:00 AM 10.4 °F -10.7 °F 5.0 °F 79% 29.93 in 7.0 mi North 26.5 mph 32.2 mph 0.00 in Snow Light Snow
2:30 AM 8.6 °F -13.1 °F 5.0 °F 85% 29.93 in 1.8 mi North 26.5 mph 35.7 mph 0.00 in Snow Light Snow
2:44 AM 8.6 °F -12.7 °F 3.2 °F 79% 29.94 in 2.5 mi North 25.3 mph 33.4 mph 0.00 in Snow Light Snow
2:52 AM 8.1 °F -13.0 °F 3.0 °F 80% 30.13 in 4.0 mi NNW 24.2 mph 31.1 mph 0.00 in Snow Light Snow
3:06 AM 8.6 °F -12.7 °F 3.2 °F 79% 29.96 in 2.5 mi North 25.3 mph 33.4 mph 0.00 in Snow Light Snow
3:28 AM 8.6 °F -14.5 °F 3.2 °F 79% 29.97 in 2.0 mi North 31.1 mph 39.1 mph 0.00 in Snow Light Snow
3:35 AM 6.8 °F -16.2 °F 1.4 °F 79% 29.97 in 1.2 mi NNW 28.8 mph 39.1 mph 0.00 in Snow Light Snow
3:52 AM 6.1 °F -16.8 °F 1.0 °F 80% 30.17 in 1.8 mi NNW 27.6 mph 36.8 mph 0.00 in Snow Light Snow
4:11 AM 6.8 °F -15.5 °F 1.4 °F 79% 29.99 in 2.0 mi NNW 26.5 mph 36.8 mph 0.00 in Snow Light Snow
4:52 AM 5.0 °F -17.9 °F -0.0 °F 80% 30.20 in 2.0 mi North 26.5 mph 38.0 mph 0.00 in Snow Light Snow
5:24 AM 6.8 °F -15.9 °F 1.4 °F 79% 30.03 in 2.0 mi North 27.6 mph 35.7 mph 0.00 in Snow Light Snow
5:34 AM 5.0 °F -18.3 °F -0.4 °F 78% 30.04 in 1.8 mi North 27.6 mph 36.8 mph 0.00 in Snow Light Snow
5:43 AM 5.0 °F -17.5 °F -0.4 °F 78% 30.05 in 2.5 mi North 25.3 mph 33.4 mph 0.00 in Snow Light Snow
5:52 AM 5.0 °F -17.1 °F -0.0 °F 80% 30.25 in 2.5 mi NNW 24.2 mph 32.2 mph 0.00 in Snow Light Snow
5:56 AM 5.0 °F -17.1 °F -0.4 °F 78% 30.06 in 3.0 mi NNW 24.2 mph 32.2 mph 0.00 in Snow Light Snow
6:52 AM 1.9 °F -20.7 °F -2.9 °F 80% 30.29 in 8.0 mi North 23.0 mph - 0.00 in   Overcast
7:52 AM -0.0 °F -23.3 °F -6.0 °F 76% 30.34 in 10.0 mi North 23.0 mph 31.1 mph N/A   Overcast
8:52 AM 1.0 °F -22.4 °F -6.0 °F 72% 30.37 in 10.0 mi North 24.2 mph - N/A   Overcast
9:52 AM -0.0 °F -18.0 °F -7.1 °F 72% 30.41 in 10.0 mi North 12.7 mph 21.9 mph N/A   Mostly Cloudy
10:52 AM 1.0 °F -14.9 °F -6.0 °F 72% 30.43 in 10.0 mi North 10.4 mph - N/A   Mostly Cloudy
11:52 AM 3.9 °F -11.3 °F -4.0 °F 70% 30.39 in 10.0 mi North 10.4 mph - N/A   Overcast
12:52 PM 6.1 °F -9.5 °F -2.9 °F 67% 30.37 in 10.0 mi North 11.5 mph - N/A   Overcast
1:52 PM 7.0 °F -1.7 °F -2.0 °F 67% 30.36 in 10.0 mi North 4.6 mph - N/A   Overcast
2:52 PM 8.1 °F - -2.0 °F 64% 30.36 in 10.0 mi Calm Calm - N/A   Overcast
3:52 PM 7.0 °F -1.7 °F -0.9 °F 70% 30.35 in 10.0 mi SSE 4.6 mph - N/A   Overcast
4:52 PM 3.9 °F -5.3 °F -2.0 °F 76% 30.35 in 10.0 mi SE 4.6 mph - N/A   Scattered Clouds
5:52 PM 5.0 °F -4.1 °F -0.0 °F 80% 30.35 in 10.0 mi SE 4.6 mph - N/A   Overcast
6:52 PM 5.0 °F -4.1 °F -0.9 °F 76% 30.34 in 10.0 mi SE 4.6 mph - N/A   Overcast
7:52 PM 6.1 °F -4.3 °F -0.0 °F 76% 30.34 in 10.0 mi SE 5.8 mph - N/A   Overcast
8:52 PM 6.1 °F -2.8 °F 1.0 °F 80% 30.32 in 10.0 mi SE 4.6 mph - N/A   Overcast
9:52 PM 3.0 °F -8.0 °F -0.9 °F 84% 30.31 in 10.0 mi SE 5.8 mph - N/A   Overcast
10:52 PM 6.1 °F -0.9 °F 1.0 °F 80% 30.28 in 10.0 mi SE 3.5 mph - N/A   Overcast
11:52 PM 7.0 °F 0.1 °F 1.9 °F 80% 30.25 in 10.0 mi SE 3.5 mph - N/A   Overcast